User: anonymous   Login
Location: Dover
(39.1580°N, 75.5250°W)
Time: 22:32:51
(UTC-05:00)
Language:

SeaSat 1 - Orbit

View from above orbital plane
View from above orbital plane
View from above satellite
View from above satellite

Ground track
Ground track

The orbit data is extracted from the following two-line orbital elements,

1 10967U 78064A   14332.19468610  .00000516  00000-0  19368-3 0  4454
2 10967 107.9942 153.2708 0001364 301.6550 154.8150 14.43178158912139
Epoch (UTC): 28 November 2014 04:40:20
Eccentricity: 0.0001364
inclination: 107.9942°
perigee height: 747 km
apogee height: 749 km
right ascension of ascending node: 153.2708°
argument of perigee: 301.6550°
revolutions per day: 14.43178158
mean anomaly at epoch: 154.8150°
orbit number at epoch: 91213

The dashed part of the orbit path shows where the satellite is in the earth's shadow,  

DLR